H1 CPF 2 NER 2025 5 27 9 147 01 glonass142 H2 2001801 9142 45358 2025 5 27 0 0 0 2025 5 30 23 45 0 900 1 1 0 0 0 1 H9 10 0 60822 0.00000 0 7107188.949 23427237.190 -7190534.720 10 0 60822 900.00000 0 7374756.997 24085394.608 -4079605.392 10 0 60822 1800.00000 0 7591226.003 24347347.211 -889505.812 10 0 60822 2700.00000 0 7701686.961 24219532.819 2317853.996 10 0 60822 3600.00000 0 7654527.133 23721280.997 5480248.376 10 0 60822 4500.00000 0 7403845.192 22883924.082 8536340.724 10 0 60822 5400.00000 0 6911631.106 21749425.483 11426869.511 10 0 60822 6300.00000 0 6149618.502 20368583.351 14095792.828 10 0 60822 7200.00000 0 5100731.115 18798885.232 16491369.577 10 0 60822 8100.00000 0 3760061.890 17102103.676 18567156.801 10 0 60822 9000.00000 0 2135342.882 15341733.241 20282904.473 10 0 60822 9900.00000 0 246885.190 13580375.711 21605331.000 10 0 60822 10800.00000 0 -1873009.751 11877182.224 22508765.073 10 0 60822 11700.00000 0 -4181144.476 10285458.409 22975642.008 10 0 60822 12600.00000 0 -6624981.319 8850531.786 22996845.282 10 0 60822 13500.00000 0 -9144596.691 7607969.715 22571886.807 10 0 60822 14400.00000 0 -11674954.170 6582221.608 21708922.279 10 0 60822 15300.00000 0 -14148403.364 5785741.649 20424600.849 10 0 60822 16200.00000 0 -16497301.960 5218628.312 18743751.350 10 0 60822 17100.00000 0 -18656652.918 4868795.534 16698910.230 10 0 60822 18000.00000 0 -20566647.631 4712668.285 14329699.391 10 0 60822 18900.00000 0 -22175009.408 4716373.261 11682065.011 10 0 60822 19800.00000 0 -23439039.483 4837374.523 8807391.284 10 0 60822 20700.00000 0 -24327279.725 5026485.042 5761505.677 10 0 60822 21600.00000 0 -24820722.067 5230168.898 2603594.727 10 0 60822 22500.00000 0 -24913513.425 5393036.337 -604948.570 10 0 60822 23400.00000 0 -24613126.074 5460425.345 -3801722.976 10 0 60822 24300.00000 0 -23939986.001 5380959.483 -6924538.918 10 0 60822 25200.00000 0 -22926574.719 5108972.447 -9912635.579 10 0 60822 26100.00000 0 -21616042.436 4606695.391 -12707870.533 10 0 60822 27000.00000 0 -20060391.214 3846113.041 -15255857.914 10 0 60822 27900.00000 0 -18318304.996 2810408.707 -17507032.251 10 0 60822 28800.00000 0 -16452718.270 1494935.856 -19417616.670 10 0 60822 29700.00000 0 -14528226.058 -92325.963 -20950476.352 10 0 60822 30600.00000 0 -12608444.314 -1930851.167 -22075840.611 10 0 60822 31500.00000 0 -10753431.675 -3988181.692 -22771879.698 10 0 60822 32400.00000 0 -9017280.564 -6221049.175 -23025125.508 10 0 60822 33300.00000 0 -7445978.089 -8576959.446 -22830728.459 10 0 60822 34200.00000 0 -6075625.674 -10996173.610 -22192546.060 10 0 60822 35100.00000 0 -4931090.889 -13414003.494 -21123061.943 10 0 60822 36000.00000 0 -4025146.692 -15763326.072 -19643137.328 10 0 60822 36900.00000 0 -3358132.676 -17977212.387 -17781600.086 10 0 60822 37800.00000 0 -2918150.986 -19991561.696 -15574679.642 10 0 60822 38700.00000 0 -2681787.058 -21747631.442 -13065298.817 10 0 60822 39600.00000 0 -2615323.388 -23194357.874 -10302236.521 10 0 60822 40500.00000 0 -2676393.830 -24290370.984 -7339177.677 10 0 60822 41400.00000 0 -2816007.503 -25005620.183 -4233668.895 10 0 60822 42300.00000 0 -2980855.938 -25322543.359 -1046000.354 10 0 60822 43200.00000 0 -3115805.274 -25236731.186 2161964.259 10 0 60822 44100.00000 0 -3166467.662 -24757059.544 5327986.965 10 0 60822 45000.00000 0 -3081742.852 -23905285.277 8390660.471 10 0 60822 45900.00000 0 -2816222.323 -22715122.784 11290595.591 10 0 60822 46800.00000 0 -2332354.234 -21230840.640 13971568.274 10 0 60822 47700.00000 0 -1602277.614 -19505437.234 16381604.273 10 0 60822 48600.00000 0 -609248.178 -17598471.835 18473980.945 10 0 60822 49500.00000 0 651404.791 -15573641.507 20208127.359 10 0 60822 50400.00000 0 2171831.468 -13496204.673 21550405.916 10 0 60822 51300.00000 0 3931744.195 -11430358.192 22474761.004 10 0 60822 52200.00000 0 5899027.757 -9436676.500 22963222.694 10 0 60822 53100.00000 0 8030853.249 -7569718.722 23006256.056 10 0 60822 54000.00000 0 10275250.684 -5875902.529 22602949.501 10 0 60822 54900.00000 0 12573076.540 -4391732.511 21761038.315 10 0 60822 55800.00000 0 14860295.840 -3142456.216 20496762.507 10 0 60822 56700.00000 0 17070485.155 -2141203.322 18834560.993 10 0 60822 57600.00000 0 19137453.412 -1388643.448 16806607.160 10 0 60822 58500.00000 0 20997872.000 -873176.590 14452193.822 10 0 60822 59400.00000 0 22593804.866 -571647.931 11816978.527 10 0 60822 60300.00000 0 23875032.916 -450556.741 8952102.983 10 0 60822 61200.00000 0 24801075.185 -467708.212 5913203.134 10 0 60822 62100.00000 0 25342821.576 -574238.181 2759328.763 10 0 60822 63000.00000 0 25483708.006 -716924.661 -448206.371 10 0 60822 63900.00000 0 25220383.870 -840687.707 -3647021.131 10 0 60822 64800.00000 0 24562843.174 -891170.870 -6774886.471 10 0 60822 65700.00000 0 23534013.290 -817293.771 -9770943.264 10 0 60822 66600.00000 0 22168818.383 -573666.496 -12576893.846 10 0 60822 67500.00000 0 20512756.836 -122762.228 -15138143.260 10 0 60822 68400.00000 0 18620052.609 563245.123 -17404867.224 10 0 60822 69300.00000 0 16551458.496 1501057.238 -19332985.471 10 0 60822 70200.00000 0 14371803.826 2695302.943 -20885021.219 10 0 60822 71100.00000 0 12147389.725 4138106.035 -22030830.013 10 0 60822 72000.00000 0 9943341.253 5809188.494 -22748183.883 10 0 60822 72900.00000 0 7821027.181 7676505.512 -23023199.872 10 0 60822 73800.00000 0 5835654.973 9697386.385 -22850605.014 10 0 60822 74700.00000 0 4034140.910 11820133.963 -22233833.155 10 0 60822 75600.00000 0 2453343.400 13986016.233 -21184952.203 10 0 60822 76500.00000 0 1118732.062 16131567.096 -19724423.656 10 0 60822 77400.00000 0 43546.799 18191100.559 -17880699.385 10 0 60822 78300.00000 0 -771519.613 20099333.552 -15689663.791 10 0 60822 79200.00000 0 -1338103.879 21794008.125 -13193932.280 10 0 60822 80100.00000 0 -1679430.326 23218403.700 -10442019.864 10 0 60822 81000.00000 0 -1829077.715 24323634.667 -7487396.111 10 0 60822 81900.00000 0 -1829308.098 25070637.605 -4387444.925 10 0 60822 82800.00000 0 -1729029.470 25431765.338 -1202349.501 10 0 60822 83700.00000 0 -1581479.205 25391921.546 2006075.743 10 0 60822 84600.00000 0 -1441726.886 24949188.894 5175583.492 10 0 60822 85500.00000 0 -1364102.563 24114924.812 8244698.742 10 0 60823 0.00000 0 -1399659.451 22913321.457 11153907.318 10 0 60823 900.00000 0 -1593778.444 21380447.873 13846806.344 10 0 60823 1800.00000 0 -1984015.684 19562816.223 16271190.805 10 0 60823 2700.00000 0 -2598284.138 17515529.874 18380060.817 10 0 60823 3600.00000 0 -3453446.097 15300091.859 20132526.763 10 0 60823 4500.00000 0 -4554376.253 12981964.130 21494596.998 10 0 60823 5400.00000 0 -5893535.490 10627978.658 22439833.245 10 0 60823 6300.00000 0 -7451074.262 8303707.342 22949861.582 10 0 60823 7200.00000 0 -9195462.558 6070899.209 23014729.482 10 0 60823 8100.00000 0 -11084621.546 3985090.527 22633102.147 10 0 60823 9000.00000 0 -13067511.326 2093486.252 21812294.187 10 0 60823 9900.00000 0 -15086110.022 433200.139 20568135.578 10 0 60823 10800.00000 0 -17077703.173 -970073.960 18924673.825 10 0 60823 11700.00000 0 -18977389.099 -2102904.830 16913717.167 10 0 60823 12600.00000 0 -20720696.533 -2964445.928 14574226.717 10 0 60823 13500.00000 0 -22246205.678 -3566223.660 11951568.334 10 0 60823 14400.00000 0 -23498063.156 -3931401.174 9096637.863 10 0 60823 15300.00000 0 -24428285.264 -4093548.919 6064876.140 10 0 60823 16200.00000 0 -24998752.367 -4094974.262 2915192.524 10 0 60823 17100.00000 0 -25182809.915 -3984681.144 -291182.114 10 0 60823 18000.00000 0 -24966407.876 -3816046.743 -3491890.297 10 0 60823 18900.00000 0 -24348729.749 -3644314.291 -6624666.902 10 0 60823 19800.00000 0 -23342283.880 -3524009.256 -9628557.684 10 0 60823 20700.00000 0 -21972452.589 -3506389.431 -12445112.694 10 0 60823 21600.00000 0 -20276517.655 -3637038.176 -15019530.527 10 0 60823 22500.00000 0 -18302202.894 -3953703.868 -17301730.368 10 0 60823 23400.00000 0 -16105795.048 -4484478.141 -19247330.380 10 0 60823 24300.00000 0 -13749921.916 -5246390.941 -20818513.111 10 0 60823 25200.00000 0 -11301080.945 -6244482.624 -21984761.017 10 0 60823 26100.00000 0 -8827021.835 -7471392.997 -22723447.962 10 0 60823 27000.00000 0 -6394092.524 -8907485.267 -23020275.534 10 0 60823 27900.00000 0 -4064659.087 -10521500.230 -22869546.188 10 0 60823 28800.00000 0 -1894706.769 -12271713.662 -22274268.372 10 0 60823 29700.00000 0 68278.618 -14107548.752 -21246092.096 10 0 60823 30600.00000 0 1787061.654 -15971576.305 -19805076.610 10 0 60823 31500.00000 0 3235968.877 -17801819.174 -17979295.017 10 0 60823 32400.00000 0 4401707.803 -19534264.651 -15804283.771 10 0 60823 33300.00000 0 5283660.888 -21105479.839 -13322347.880 10 0 60823 34200.00000 0 5893643.935 -22455220.623 -10581735.478 10 0 60823 35100.00000 0 6255140.909 -23528925.169 -7635697.894 10 0 60823 36000.00000 0 6402049.048 -24279987.667 -4541453.571 10 0 60823 36900.00000 0 6376988.572 -24671717.200 -1359076.144 10 0 60823 37800.00000 0 6229249.574 -24678899.883 1849671.609 10 0 60823 38700.00000 0 6012463.706 -24288898.990 5022535.198 10 0 60823 39600.00000 0 5782099.699 -23502247.209 8097973.852 10 0 60823 40500.00000 0 5592888.981 -22332706.360 11016350.641 10 0 60823 41400.00000 0 5496290.353 -20806792.182 13721084.342 10 0 60823 42300.00000 0 5538100.851 -18962784.053 16159741.014 10 0 60823 43200.00000 0 5756313.623 -16849260.786 18285044.619 10 0 60823 44100.00000 0 6179313.157 -14523223.246 20055787.703 10 0 60823 45000.00000 0 6824484.006 -12047881.446 21437625.151 10 0 60823 45900.00000 0 7697291.904 -9490197.476 22403736.317 10 0 60823 46800.00000 0 8790876.519 -6918285.498 22935343.304 10 0 60823 47700.00000 0 10086173.813 -4398775.854 23022075.709 10 0 60823 48600.00000 0 11552564.125 -1994251.685 22662174.976 10 0 60823 49500.00000 0 13149020.187 239136.550 21862534.229 10 0 60823 50400.00000 0 14825708.563 2253780.460 20638572.378 10 0 60823 51300.00000 0 16525978.944 4012360.199 19013944.275 10 0 60823 52200.00000 0 18188659.454 5489156.015 17020091.587 10 0 60823 53100.00000 0 19750562.892 6670870.753 14695642.130 10 0 60823 54000.00000 0 21149099.691 7556929.421 12085668.313 10 0 60823 54900.00000 0 22324888.348 8159243.691 9240818.199 10 0 60823 55800.00000 0 23224253.649 8501451.610 6216335.430 10 0 60823 56700.00000 0 23801507.285 8617664.927 3070986.716 10 0 60823 57600.00000 0 24020914.154 8550777.382 -134082.309 10 0 60823 58500.00000 0 23858260.601 8350406.034 -3336540.239 10 0 60823 59400.00000 0 23301957.508 8070553.449 -6474088.303 10 0 60823 60300.00000 0 22353630.674 7767090.641 -9485679.498 10 0 60823 61200.00000 0 21028172.684 7495168.372 -12312713.824 10 0 60823 62100.00000 0 19353253.300 7306667.522 -14900185.477 10 0 60823 63000.00000 0 17368308.382 7247797.589 -17197758.949 10 0 60823 63900.00000 0 15123049.441 7356945.935 -19160752.463 10 0 60823 64800.00000 0 12675556.166 7662869.658 -20751009.315 10 0 60823 65700.00000 0 10090031.716 8183307.195 -21937640.107 10 0 60823 66600.00000 0 7434314.656 8924068.879 -22697621.561 10 0 60823 67500.00000 0 4777251.339 9878645.214 -23016240.633 10 0 60823 68400.00000 0 2186038.139 11028349.721 -22887375.759 10 0 60823 69300.00000 0 -276356.075 12342990.558 -22313610.238 10 0 60823 70200.00000 0 -2553580.500 13782042.875 -21306176.074 10 0 60823 71100.00000 0 -4598007.371 15296272.801 -19884729.760 10 0 60823 72000.00000 0 -6372464.766 16829744.990 -18076964.722 10 0 60823 72900.00000 0 -7851526.458 18322129.553 -15918068.156 10 0 60823 73800.00000 0 -9022306.603 19711211.693 -13450033.007 10 0 60823 74700.00000 0 -9884727.788 20935498.730 -10720838.557 10 0 60823 75600.00000 0 -10451253.067 21936815.206 -7783515.670 10 0 60823 76500.00000 0 -10746095.003 22662777.166 -4695114.910 10 0 60823 77400.00000 0 -10803936.655 23069041.789 -1515597.802 10 0 60823 78300.00000 0 -10668219.779 23121237.979 1693327.167 10 0 60823 79200.00000 0 -10389073.650 22796496.907 4869401.016 10 0 60823 80100.00000 0 -10020972.744 22084518.310 7951019.917 10 0 60823 81000.00000 0 -9620222.802 20988127.811 10878426.617 10 0 60823 81900.00000 0 -9242381.701 19523301.787 13594864.702 10 0 60823 82800.00000 0 -8939724.096 17718658.567 16047673.603 10 0 60823 83700.00000 0 -8758856.722 15614436.821 18189303.575 10 0 60823 84600.00000 0 -8738584.734 13261003.260 19978231.629 10 0 60823 85500.00000 0 -8908118.824 10716951.113 21379761.295 10 0 60824 0.00000 0 -9285698.521 8046867.867 22366691.363 10 0 60824 900.00000 0 -9877689.996 5318862.548 22919841.691 10 0 60824 1800.00000 0 -10678196.180 2601957.697 23028425.078 10 0 60824 2700.00000 0 -11669196.979 -36551.650 22690259.926 10 0 60824 3600.00000 0 -12821214.286 -2533660.048 21911818.072 10 0 60824 4500.00000 0 -14094475.265 -4833030.866 20708106.988 10 0 60824 5400.00000 0 -15440526.405 -6887094.580 19102387.898 10 0 60824 6300.00000 0 -16804231.972 -8658779.653 17125734.326 10 0 60824 7200.00000 0 -18126074.092 -10122804.528 14816438.660 10 0 60824 8100.00000 0 -19344658.758 -11266477.294 12219277.230 10 0 60824 9000.00000 0 -20399322.969 -12089970.023 9384647.276 10 0 60824 9900.00000 0 -21232733.415 -12606056.572 6367591.907 10 0 60824 10800.00000 0 -21793366.999 -12839325.289 3226731.637 10 0 60824 11700.00000 0 -22037768.026 -12824900.179 23123.227 10 0 60824 12600.00000 0 -21932485.904 -12606725.040 -3180931.667 10 0 60824 13500.00000 0 -21455610.529 -12235483.722 -6323104.240 10 0 60824 14400.00000 0 -20597839.335 -11766245.308 -9342258.253 10 0 60824 15300.00000 0 -19363029.870 -11255934.762 -12179646.998 10 0 60824 16200.00000 0 -17768213.510 -10760737.119 -14780063.399 10 0 60824 17100.00000 0 -15843068.846 -10333546.054 -17092920.052 10 0 60824 18000.00000 0 -13628876.182 -10021565.688 -19073237.625 10 0 60824 18900.00000 0 -11176996.517 -9864167.807 -20682522.031 10 0 60824 19800.00000 0 -8546938.365 -9891095.627 -21889513.280 10 0 60824 20700.00000 0 -5804093.050 -10121090.347 -22670791.548 10 0 60824 21600.00000 0 -3017232.832 -10560998.636 -23011229.071 10 0 60824 22500.00000 0 -255875.890 -11205398.750 -22904279.494 10 0 60824 23400.00000 0 2412372.374 -12036760.987 -22352099.599 10 0 60824 24300.00000 0 4924391.619 -13026135.605 -21365501.477 10 0 60824 25200.00000 0 7223926.133 -14134339.151 -19963736.539 10 0 60824 26100.00000 0 9263673.583 -15313589.151 -18174115.837 10 0 60824 27000.00000 0 11006997.199 -16509518.309 -16031474.361 10 0 60824 27900.00000 0 12429191.406 -17663483.426 -13577489.837 10 0 60824 28800.00000 0 13518249.682 -18715071.851 -10859869.406 10 0 60824 29700.00000 0 14275104.231 -19604699.978 -7931420.100 10 0 60824 30600.00000 0 14713329.191 -20276194.458 -4849021.243 10 0 60824 31500.00000 0 14858321.515 -20679247.460 -1672518.947 10 0 60824 32400.00000 0 14745995.534 -20771642.666 1536435.728 10 0 60824 33300.00000 0 14421047.472 -20521158.322 4715582.244 10 0 60824 34200.00000 0 13934864.115 -19907067.255 7803256.336 10 0 60824 35100.00000 0 13343164.584 -18921170.694 10739582.713 10 0 60824 36000.00000 0 12703475.103 -17568322.274 13467631.674 10 0 60824 36900.00000 0 12072543.432 -15866419.918 15934517.515 10 0 60824 37800.00000 0 11503801.873 -13845865.397 18092417.883 10 0 60824 38700.00000 0 11044985.476 -11548513.459 19899494.956 10 0 60824 39600.00000 0 10736005.424 -9026153.486 21320701.231 10 0 60824 40500.00000 0 10607166.713 -6338585.852 22328455.025 10 0 60824 41400.00000 0 10677804.889 -3551371.737 22903173.217 10 0 60824 42300.00000 0 10955399.119 -733348.605 23033651.313 10 0 60824 43200.00000 0 11435199.097 2045986.898 22717283.695 10 0 60824 44100.00000 0 12100382.008 4719121.364 21960119.666 10 0 60824 45000.00000 0 12922733.741 7223083.904 20776753.794 10 0 60824 45900.00000 0 13863826.727 9501817.081 19190052.016 10 0 60824 46800.00000 0 14876646.007 11508261.855 17230717.888 10 0 60824 47700.00000 0 15907596.178 13206070.385 14936706.407 10 0 60824 48600.00000 0 16898805.681 14570875.770 12352495.741 10 0 60824 49500.00000 0 17790632.012 15591066.026 9528230.108 10 0 60824 50400.00000 0 18524262.495 16268030.136 6518749.794 10 0 60824 51300.00000 0 19044300.812 16615866.118 3382526.767 10 0 60824 52200.00000 0 19301229.577 16660563.680 180526.510 10 0 60824 53100.00000 0 19253644.082 16438696.312 -3024981.434 10 0 60824 54000.00000 0 18870161.773 15995678.546 -6171640.533 10 0 60824 54900.00000 0 18130925.507 15383662.687 -9198227.471 10 0 60824 55800.00000 0 17028635.814 14659164.754 -12045850.824 10 0 60824 56700.00000 0 15569067.333 13880520.906 -14659104.002 10 0 60824 57600.00000 0 13771046.497 13105282.786 -16987149.250 10 0 60824 58500.00000 0 11665890.420 12387662.785 -18984711.005 10 0 60824 59400.00000 0 9296329.730 11776137.799 -20612958.936 10 0 60824 60300.00000 0 6714959.895 11311313.201 -21840263.429 10 0 60824 61200.00000 0 3982285.363 11024137.427 -22642808.923 10 0 60824 62100.00000 0 1164437.851 10934542.488 -23005053.553 10 0 60824 63000.00000 0 -1669336.436 11050567.540 -22920026.594 10 0 60824 63900.00000 0 -4449316.311 11368002.105 -22389458.429 10 0 60824 64800.00000 0 -7107962.477 11870563.524 -21423741.034 10 0 60824 65700.00000 0 -9582481.848 12530600.699 -20041720.127 10 0 60824 66600.00000 0 -11817193.407 13310294.031 -18270323.397 10 0 60824 67500.00000 0 -13765598.108 14163300.596 -16144032.250 10 0 60824 68400.00000 0 -15392067.809 15036774.920 -13704207.488 10 0 60824 69300.00000 0 -16673084.109 15873679.936 -10998282.150 10 0 60824 70200.00000 0 -17597976.853 16615290.497 -8078837.287 10 0 60824 71100.00000 0 -18169133.000 17203783.792 -5002578.722 10 0 60824 72000.00000 0 -18401668.682 17584807.297 -1829234.824 10 0 60824 72900.00000 0 -18322579.731 17709915.912 1379603.148 10 0 60824 73800.00000 0 -17969407.784 17538775.474 4561675.471 10 0 60824 74700.00000 0 -17388479.234 17041039.674 7655259.849 10 0 60824 75600.00000 0 -16632792.058 16197821.187 10600365.358 10 0 60824 76500.00000 0 -15759640.120 15002694.883 13339891.416 10 0 60824 77400.00000 0 -14828075.270 13462190.561 15820729.565 10 0 60824 78300.00000 0 -13896314.085 11595753.977 17994787.166 10 0 60824 79200.00000 0 -13019198.093 9435176.978 19819913.779 10 0 60824 80100.00000 0 -12245813.900 7023519.591 21260712.929 10 0 60824 81000.00000 0 -11617372.681 4413567.796 22289224.242 10 0 60824 81900.00000 0 -11165437.626 1665889.835 22885463.372 10 0 60824 82800.00000 0 -10910573.367 -1153429.603 23037809.673 10 0 60824 83700.00000 0 -10861473.876 -3975284.708 22743234.367 10 0 60824 84600.00000 0 -11014605.478 -6730171.318 22007364.645 10 0 60824 85500.00000 0 -11354380.287 -9350829.598 20844382.111 10 0 60825 0.00000 0 -11853853.259 -11774797.899 19276757.009 10 0 60825 900.00000 0 -12475914.571 -13946773.883 17334821.564 10 0 60825 1800.00000 0 -13174927.238 -15820682.183 15056191.914 10 0 60825 2700.00000 0 -13898742.632 -17361367.215 12485046.021 10 0 60825 3600.00000 0 -14591008.878 -18545837.471 9671272.640 10 0 60825 4500.00000 0 -15193675.268 -19364010.681 6669506.466 10 0 60825 5400.00000 0 -15649586.819 -19818928.490 3538067.892 10 0 60825 6300.00000 0 -15905058.970 -19926431.741 337827.929 10 0 60825 7200.00000 0 -15912322.727 -19714310.210 -2868979.322 10 0 60825 8100.00000 0 -15631735.846 -19220963.002 -6019972.996 10 0 60825 9000.00000 0 -15033665.248 -18493626.610 -9053846.127 10 0 60825 9900.00000 0 -14099959.734 -17586246.119 -11911565.967 10 0 60825 10800.00000 0 -12824949.404 -16557080.245 -14537529.705 10 0 60825 11700.00000 0 -11215928.273 -15466142.160 -16880652.350 10 0 60825 12600.00000 0 -9293098.573 -14372584.952 -18895364.924 10 0 60825 13500.00000 0 -7088978.031 -13332142.711 -20542503.271 10 0 60825 14400.00000 0 -4647294.123 -12394735.609 -21790070.066 10 0 60825 15300.00000 0 -2021410.925 -11602340.129 -22613855.349 10 0 60825 16200.00000 0 727646.227 -10987214.093 -22997903.866 10 0 60825 17100.00000 0 3533486.338 -10570550.860 -22934820.596 10 0 60825 18000.00000 0 6326873.339 -10361618.810 -22425909.010 10 0 60825 18900.00000 0 9038367.206 -10357421.591 -21481139.886 10 0 60825 19800.00000 0 11600976.200 -10542892.597 -20118951.694 10 0 60825 20700.00000 0 13952710.527 -10891614.694 -18365886.744 10 0 60825 21600.00000 0 16038931.886 -11367034.033 -16256070.446 10 0 60825 22500.00000 0 17814401.994 -11924116.130 -13830543.884 10 0 60825 23400.00000 0 19244945.752 -12511373.746 -11136462.862 10 0 60825 24300.00000 0 20308660.838 -13073180.561 -8226179.032 10 0 60825 25200.00000 0 20996624.537 -13552272.608 -5156221.064 10 0 60825 26100.00000 0 21313069.564 -13892331.584 -1986195.816 10 0 60825 27000.00000 0 21275022.930 -14040540.762 1222369.022 10 0 60825 27900.00000 0 20911424.305 -13950005.448 4407218.194 10 0 60825 28800.00000 0 20261762.089 -13581935.664 7506574.763 10 0 60825 29700.00000 0 19374285.458 -12907498.851 10460335.195 10 0 60825 30600.00000 0 18303868.249 -11909264.248 13211230.605 10 0 60825 31500.00000 0 17109614.886 -10582177.801 15705931.864 10 0 60825 32400.00000 0 15852309.044 -8934026.052 17896077.625 10 0 60825 33300.00000 0 14591812.039 -6985368.777 19739205.908 10 0 60825 34200.00000 0 13384519.720 -4768942.160 21199571.874 10 0 60825 35100.00000 0 12280983.987 -2328556.201 22248836.625 10 0 60825 36000.00000 0 11323797.973 282469.147 22866614.353 10 0 60825 36900.00000 0 10545832.900 3003265.529 23040867.654 10 0 60825 37800.00000 0 9968899.925 5767695.570 22768143.622 10 0 60825 38700.00000 0 9602892.711 8506856.972 22053646.056 10 0 60825 39600.00000 0 9445446.513 11151708.835 20911142.017 10 0 60825 40500.00000 0 9482128.169 13635712.431 19362703.900 10 0 60825 41400.00000 0 9687149.293 15897377.719 17438291.100 10 0 60825 42300.00000 0 10024573.111 17882610.418 15175178.398 10 0 60825 43200.00000 0 10449964.573 19546762.273 12617241.124 10 0 60825 44100.00000 0 10912414.603 20856299.221 9814110.021 10 0 60825 45000.00000 0 11356853.252 21790017.653 6820211.534 10 0 60825 45900.00000 0 11726554.002 22339757.752 3693711.776 10 0 60825 46800.00000 0 11965722.958 22510583.865 495384.568 10 0 60825 47700.00000 0 12022062.708 22320424.247 -2712574.093 10 0 60825 48600.00000 0 11849201.340 21799185.466 -5867761.539 10 0 60825 49500.00000 0 11408882.609 20987379.033 -8908789.487 10 0 60825 50400.00000 0 10672823.208 19934318.618 -11776485.946 10 0 60825 51300.00000 0 9624157.188 18695964.496 -14415053.702 10 0 60825 52200.00000 0 8258405.104 17332506.827 -16773162.042 10 0 60825 53100.00000 0 6583925.678 15905790.363 -18804949.848 10 0 60825 54000.00000 0 4621829.770 14476689.745 -20470920.169 10 0 60825 54900.00000 0 2405359.212 13102546.330 -21738708.801 10 0 60825 55800.00000 0 -21244.319 11834774.666 -22583712.023 10 0 60825 56700.00000 0 -2604333.740 10716739.151 -22989561.632 10 0 60825 57600.00000 0 -5282848.351 9781989.757 -22948438.511 10 0 60825 58500.00000 0 -7990620.331 9052930.272 -22461219.126 10 0 60825 59400.00000 0 -10658900.312 8539974.126 -21537452.625 10 0 60825 60300.00000 0 -13218997.361 8241222.170 -20195169.393 10 0 60825 61200.00000 0 -15604923.934 8142674.830 -18460525.151 10 0 60825 62100.00000 0 -17755936.293 8218968.514 -16367287.718 10 0 60825 63000.00000 0 -19618865.283 8434604.159 -13956176.580 10 0 60825 63900.00000 0 -21150141.062 8745615.161 -11274068.189 10 0 60825 64800.00000 0 -22317428.243 9101603.475 -8373082.543 10 0 60825 65700.00000 0 -23100804.155 9448057.261 -5309568.836 10 0 60825 66600.00000 0 -23493432.033 9728851.647 -2143010.063 10 0 60825 67500.00000 0 -23501702.095 9888826.557 1065132.006 10 0 60825 68400.00000 0 -23144835.730 9876332.367 4252608.927 10 0 60825 69300.00000 0 -22453970.442 9645635.641 7357591.455 10 0 60825 70200.00000 0 -21470764.881 9159083.136 10319865.783 10 0 60825 71100.00000 0 -20245583.207 8388932.568 13081997.035 10 0 60825 72000.00000 0 -18835335.455 7318772.631 15590437.677 10 0 60825 72900.00000 0 -17301064.679 5944472.059 17796559.823 10 0 60825 73800.00000 0 -15705381.908 4274617.130 19657591.983 10 0 60825 74700.00000 0 -14109856.037 2330418.367 21137442.772 10 0 60825 75600.00000 0 -12572467.317 145089.112 22207396.346 10 0 60825 76500.00000 0 -11145230.259 -2237279.488 22846666.706 10 0 60825 77400.00000 0 -9872084.586 -4763301.784 23042800.639 10 0 60825 78300.00000 0 -8787141.642 -7372274.976 22791921.714 10 0 60825 79200.00000 0 -7913358.911 -9998470.025 22098810.571 10 0 60825 80100.00000 0 -7261697.626 -12573642.448 20976819.594 10 0 60825 81000.00000 0 -6830798.415 -15029660.086 19447622.954 10 0 60825 81900.00000 0 -6607188.473 -17301139.711 17540806.007 10 0 60825 82800.00000 0 -6566011.615 -19327983.541 15293300.990 10 0 60825 83700.00000 0 -6672250.632 -21057710.480 12748678.930 10 0 60825 84600.00000 0 -6882390.661 -22447484.942 9956310.552 10 0 60825 85500.00000 0 -7146453.436 -23465758.362 6970411.780 99